Location: Azul
(36.7830°S, 59.8500°W)
Time: 12:31:41
(UTC-03:00)

ISS - Pass Details

Date: 20 February 2018
Orbit: 403 x 406 km, 51.6° (Epoch: 26 February)

Event Time Altitude Azimuth Distance (km) Brightness Sun altitude
Exits shadow 05:34:53 21° 305° (NW) 984 -2.5 -12.4°
Maximum altitude 05:35:04 21° 310° (NW) 980 -2.5 -12.3°
Drops below altitude 10° 05:37:38 10° 2° (N) 1,470 -1.2 -11.8°
Sets 05:40:01 0° 18° (NNE) 2,322 0.0 -11.4°
